AirNav   Everest Fuels
 
 1024 users online  

9PS0 Zokaites Heliport
Wexford, Pennsylvania, USA

GOING TO WEXFORD?


FAA INFORMATION EFFECTIVE 18 JUNE 2020

Location

FAA Identifier: 9PS0
Lat/Long: 40-36-32.2420N 080-01-58.9050W
40-36.537367N 080-01.981750W
40.6089561,-80.0330292
(estimated)
Elevation: 1268 ft. / 386 m (estimated)
Variation: 08W (1985)
From city: 1 mile W of WEXFORD, PA
Time zone: UTC -4 (UTC -5 during Standard Time)
Zip code: 15090

Heliport Operations

Heliport use: Private use. Permission required prior to landing
Activation date: 04/1988
Control tower: no
ARTCC: CLEVELAND CENTER
FSS: ALTOONA FLIGHT SERVICE STATION
Attendance: UNATNDD
Wind indicator: yes
Segmented circle: no

Heliport Communications

WX AWOS-A at 42PN (9 nm S): PHONE 412-442-2213
WX AWOS-3PT at BTP (11 nm N): 121.450 (724-586-6434)
WX ASOS at PIT (12 nm SW): PHONE 412-472-0145
WX AWOS-3PT at PJC (13 nm NW): 118.45 (724-452-5304)
WX ASOS at AGC (16 nm S): 120.55 (412-466-8968)
WX AWOS-3PT at BVI (19 nm NW): 118.35 (724-843-1024)

Nearby radio navigation aids

VOR radial/distance  VOR name  Freq  Var
EWCr156/15.3ELLWOOD CITY VOR/DME115.8008W
AGCr010/19.8ALLEGHENY VOR/DME110.0009W
HLGr056/32.2WHEELING VOR/DME112.2007W

 
NDB name  Hdg/Dist  Freq  Var  ID
CASTLE154/30.327209WUCP ..- -.-. .--.

Heliport Services

Runway Information

Helipad H1

Dimensions: 60 x 60 ft. / 18 x 18 m
Surface: turf
Traffic pattern: leftleft

Heliport Ownership and Management from official FAA records

Ownership: Privately-owned
Owner: FRANK R. ZOKAITES
375 GOLFSIDE DR
WEXFORD, PA 15090
Phone 412-935-5257

Heliport Operational Statistics

Aircraft based on the field: 1
Helicopters: 1
    

Additional Remarks

A52-H1 30' BLDG 80' SOUTH
FOR CD CTC PITTSBURGH APCH AT 412-472-5591

Instrument Procedures

There are no published instrument procedures at 9PS0.

Some nearby airports with instrument procedures:

KBTP - Pittsburgh/Butler Regional Airport (11 nm N)
KPIT - Pittsburgh International Airport (12 nm SW)
KPJC - Zelienople Municipal Airport (13 nm NW)
KAGC - Allegheny County Airport (16 nm S)
KBVI - Beaver County Airport (19 nm NW)
 
Loc | Ops | Rwys | IFR | FBO | Links
Com | Nav | Svcs | Stats | Notes
Area around 9PS0 (Zokaites Heliport)
 
Road maps at: MapQuest Bing Google
 
Aerial photo
No photo
 
Sectional chart

 
Airport distance calculator
Flying to Zokaites Heliport? Find the distance to fly.

From to 9PS0

Sunrise and sunset
Times for 06-Jul-2020
 Local
(UTC-4)
 Zulu
(UTC)
Morning civil twilight05:2509:25
Sunrise05:5709:57
Sunset20:5300:53
Evening civil twilight21:2501:25

Current date and time
Zulu (UTC)  07-Jul-2020 00:06:40
Local (UTC-4)  06-Jul-2020 20:06:40
 
METAR
KBTP 
10nm N 
062356Z AUTO 00000KT 10SM CLR 29/17 A3002 RMK AO2 SLP161 6//// T02940172 10339 20294 53000 PNO $
KPIT 
12nm SW 
062351Z 33009KT 10SM FEW050 SCT250 32/12 A3000 RMK AO2 SLP154 T03170122 10344 20317 56002
KAGC 
16nm S 
062353Z 33005KT 10SM CLR 32/15 A2999 RMK AO2 SLP148 T03170150 10350 20317 55001
KBVI 
19nm NW 
062356Z AUTO 00000KT 10SM CLR 29/17 A3002 RMK AO2 T02920165
TAF
KPIT 
12nm SW 
062057Z 0621/0724 30010KT P6SM SCT250 FM070000 00000KT P6SM SKC FM072000 20003KT P6SM SCT050 PROB30 0720/0724 P6SM -TSRA BKN050CB
KAGC 
16nm S 
061737Z 0618/0718 26004KT P6SM SCT250 FM070000 00000KT P6SM SKC FM071700 20004KT P6SM SCT100
KBVI 
19nm NW 
061737Z 0618/0718 28004KT P6SM SKC FM070000 35003KT P6SM SKC FM071700 21004KT P6SM SCT100
NOTAMs
Click for the latest NOTAMs
NOTAMs are issued by the DoD/FAA and will open in a separate window not controlled by AirNav.

 

 
 

Would you like to see your business listed on this page?

 If your business provides an interesting product or service to pilots, flight crews, aircraft, or users of the Zokaites Heliport, you should consider listing it here.  To start the listing process, click on the button below
 
Add a business
 

Other Pages about Zokaites Heliport

Update a link
 
Copyright © AirNav, LLC. All rights reserved. Privacy Policy  Contact